| time (UTC) | temp C | wind direction | speed KPH | gust KPH | rain 1hr cm | rain 24hr cm | rain mn cm | humidity % | barometer mb |
| 20260504211043 | 25 | 199 | 19.3 | 27.4 | 0.00 | 0.00 | 0.00 | 34 | 1007.5 |
| 20260504210543 | 25 | 186 | 19.3 | 25.7 | 0.00 | 0.00 | 0.00 | 34 | 1007.5 |
| 20260504210036 | 25 | 178 | 17.7 | 29.0 | 0.00 | 0.00 | 0.00 | 34 | 1007.4 |
| 20260504205528 | 25 | 182 | 20.9 | 29.0 | 0.00 | 0.00 | 0.00 | 34 | 1007.5 |
| 20260504205025 | 25 | 157 | 22.5 | 29.0 | 0.00 | 0.00 | 0.00 | 34 | 1007.6 |
| 20260504204559 | 25 | 188 | 19.3 | 38.6 | 0.00 | 0.00 | 0.00 | 34 | 1007.7 |
| 20260504204059 | 25 | 164 | 20.9 | 38.6 | 0.00 | 0.00 | 0.00 | 34 | 1007.8 |
| 20260504203530 | 25 | 149 | 19.3 | 37.0 | 0.00 | 0.00 | 0.00 | 34 | 1007.9 |
| 20260504203106 | 25 | 141 | 20.9 | 37.0 | 0.00 | 0.00 | 0.00 | 34 | 1007.9 |
| 20260504202538 | 25 | 180 | 17.7 | 29.0 | 0.00 | 0.00 | 0.00 | 35 | 1007.9 |
| 20260504202034 | 25 | 163 | 19.3 | 35.4 | 0.00 | 0.00 | 0.00 | 34 | 1007.9 |
| 20260504201526 | 24 | 148 | 27.4 | 37.0 | 0.00 | 0.00 | 0.00 | 34 | 1008.0 |
| 20260504201043 | 24 | 181 | 24.1 | 37.0 | 0.00 | 0.00 | 0.00 | 34 | 1008.1 |
| 20260504200533 | 25 | 160 | 22.5 | 32.2 | 0.00 | 0.00 | 0.00 | 33 | 1008.1 |
| 20260504200030 | 25 | 177 | 20.9 | 33.8 | 0.00 | 0.00 | 0.00 | 34 | 1008.3 |
| 20260504195529 | 25 | 165 | 20.9 | 29.0 | 0.00 | 0.00 | 0.00 | 33 | 1008.2 |
| 20260504195027 | 25 | 190 | 22.5 | 30.6 | 0.00 | 0.00 | 0.00 | 34 | 1008.4 |
| 20260504194604 | 25 | 171 | 22.5 | 33.8 | 0.00 | 0.00 | 0.00 | 34 | 1008.4 |
| 20260504194042 | 25 | 161 | 22.5 | 32.2 | 0.00 | 0.00 | 0.00 | 34 | 1008.5 |
| 20260504193543 | 25 | 160 | 16.1 | 32.2 | 0.00 | 0.00 | 0.00 | 35 | 1008.6 |
| 20260504193041 | 24 | 171 | 24.1 | 37.0 | 0.00 | 0.00 | 0.00 | 35 | 1008.7 |
| 20260504192541 | 25 | 183 | 20.9 | 37.0 | 0.00 | 0.00 | 0.00 | 34 | 1008.7 |
| 20260504192041 | 25 | 224 | 17.7 | 33.8 | 0.00 | 0.00 | 0.00 | 34 | 1009.0 |
| 20260504191542 | 25 | 168 | 24.1 | 33.8 | 0.00 | 0.00 | 0.00 | 33 | 1008.9 |
| 20260504191104 | 24 | 173 | 22.5 | 32.2 | 0.00 | 0.00 | 0.00 | 34 | 1009.0 |
| 20260504190537 | 24 | 182 | 17.7 | 27.4 | 0.00 | 0.00 | 0.00 | 35 | 1009.0 |
| 20260504190035 | 24 | 119 | 22.5 | 30.6 | 0.00 | 0.00 | 0.00 | 35 | 1009.2 |
| 20260504185527 | 24 | 163 | 24.1 | 35.4 | 0.00 | 0.00 | 0.00 | 34 | 1009.2 |
| 20260504185025 | 24 | 159 | 22.5 | 38.6 | 0.00 | 0.00 | 0.00 | 34 | 1009.4 |
| 20260504184542 | 24 | 144 | 16.1 | 25.7 | 0.00 | 0.00 | 0.00 | 36 | 1009.4 |
| 20260504184044 | 24 | 179 | 14.5 | 30.6 | 0.00 | 0.00 | 0.00 | 35 | 1009.4 |
| 20260504183537 | 23 | 219 | 8.0 | 30.6 | 0.00 | 0.00 | 0.00 | 37 | 1009.6 |
| 20260504183059 | 23 | 194 | 22.5 | 33.8 | 0.00 | 0.00 | 0.00 | 35 | 1009.7 |
| 20260504182541 | 23 | 188 | 19.3 | 33.8 | 0.00 | 0.00 | 0.00 | 35 | 1009.8 |
| 20260504182041 | 23 | 142 | 17.7 | 33.8 | 0.00 | 0.00 | 0.00 | 36 | 1009.9 |
| 20260504181539 | 23 | 142 | 17.7 | 32.2 | 0.00 | 0.00 | 0.00 | 34 | 1009.9 |
| 20260504181040 | 23 | 180 | 22.5 | 32.2 | 0.00 | 0.00 | 0.00 | 36 | 1010.1 |
| 20260504180536 | 23 | 202 | 16.1 | 27.4 | 0.00 | 0.00 | 0.00 | 36 | 1010.1 |
| 20260504180038 | 23 | 139 | 20.9 | 30.6 | 0.00 | 0.00 | 0.00 | 35 | 1010.1 |
| 20260504175533 | 23 | 160 | 24.1 | 30.6 | 0.00 | 0.00 | 0.00 | 36 | 1010.2 |
| 20260504175026 | 23 | 222 | 14.5 | 30.6 | 0.00 | 0.00 | 0.00 | 34 | 1010.3 |
| 20260504174604 | 23 | 205 | 11.3 | 22.5 | 0.00 | 0.00 | 0.00 | 35 | 1010.3 |
| 20260504174036 | 23 | 215 | 12.9 | 20.9 | 0.00 | 0.00 | 0.00 | 37 | 1010.4 |
| 20260504173531 | 22 | 174 | 12.9 | 27.4 | 0.00 | 0.00 | 0.00 | 36 | 1010.4 |
| 20260504173025 | 22 | 234 | 16.1 | 27.4 | 0.00 | 0.00 | 0.00 | 38 | 1010.6 |
| 20260504172604 | 22 | 194 | 16.1 | 27.4 | 0.00 | 0.00 | 0.00 | 36 | 1010.7 |
| 20260504172043 | 22 | 190 | 19.3 | 27.4 | 0.00 | 0.00 | 0.00 | 36 | 1010.8 |
| 20260504171541 | 22 | 178 | 16.1 | 27.4 | 0.00 | 0.00 | 0.00 | 37 | 1010.7 |
| 20260504171037 | 22 | 260 | 9.7 | 20.9 | 0.00 | 0.00 | 0.00 | 38 | 1010.8 |
| 20260504170531 | 22 | 211 | 14.5 | 20.9 | 0.00 | 0.00 | 0.00 | 38 | 1010.9 |
| 20260504151044 | 18 | 244 | 19.3 | 37.0 | 0.00 | 0.00 | 0.00 | 40 | 1012.2 |
| 20260504150539 | 18 | 229 | 6.4 | 16.1 | 0.00 | 0.00 | 0.00 | 45 | 1012.3 |
| 20260504141039 | 17 | 269 | 16.1 | 29.0 | 0.00 | 0.00 | 0.00 | 41 | 1012.5 |
| 20260504140539 | 17 | 179 | 14.5 | 20.9 | 0.00 | 0.00 | 0.00 | 43 | 1012.4 |
| 20260504130541 | 14 | 157 | 16.1 | 22.5 | 0.00 | 0.00 | 0.00 | 45 | 1012.7 |
| 20260504110540 | 8 | 146 | 6.4 | 11.3 | 0.00 | 0.00 | 0.00 | 59 | 1013.1 |
| 20260504100534 | 7 | 136 | 6.4 | 8.0 | 0.00 | 0.00 | 0.00 | 64 | 1013.1 |
| 20260504081536 | 6 | 149 | 3.2 | 4.8 | 0.00 | 0.00 | 0.00 | 64 | 1013.6 |
| 20260504081041 | 6 | 149 | 3.2 | 8.0 | 0.00 | 0.00 | 0.00 | 63 | 1013.7 |
| 20260504080541 | 6 | 149 | 3.2 | 8.0 | 0.00 | 0.00 | 0.00 | 64 | 1013.7 |
| 20260504050537 | 6 | 146 | 3.2 | 6.4 | 0.00 | 0.00 | 0.00 | 70 | 1014.1 |
| 20260504045536 | 6 | 146 | 4.8 | 6.4 | 0.00 | 0.00 | 0.00 | 69 | 1014.1 |
| 20260504045039 | 6 | 138 | 3.2 | 6.4 | 0.00 | 0.00 | 0.00 | 68 | 1014.0 |
| 20260504044539 | 6 | 138 | 3.2 | 6.4 | 0.00 | 0.00 | 0.00 | 68 | 1014.1 |
| 20260504044037 | 6 | 138 | 3.2 | 4.8 | 0.00 | 0.00 | 0.00 | 67 | 1014.2 |
| 20260504043559 | 6 | 138 | 3.2 | 4.8 | 0.00 | 0.00 | 0.00 | 66 | 1014.2 |
| 20260504043039 | 6 | 138 | 3.2 | 6.4 | 0.00 | 0.00 | 0.00 | 67 | 1014.2 |
| 20260504042537 | 6 | 138 | 1.6 | 6.4 | 0.00 | 0.00 | 0.00 | 67 | 1014.3 |
| 20260504042034 | 6 | 138 | 3.2 | 8.0 | 0.00 | 0.00 | 0.00 | 67 | 1014.2 |
| 20260504041530 | 6 | 145 | 4.8 | 11.3 | 0.00 | 0.00 | 0.00 | 66 | 1014.2 |
| 20260504041051 | 6 | 139 | 6.4 | 11.3 | 0.00 | 0.00 | 0.00 | 65 | 1014.3 |
| 20260504040524 | 6 | 144 | 6.4 | 8.0 | 0.00 | 0.00 | 0.00 | 66 | 1014.3 |
| 20260504040044 | 6 | 143 | 4.8 | 8.0 | 0.00 | 0.00 | 0.00 | 66 | 1014.3 |
| 20260504035539 | 6 | 146 | 6.4 | 8.0 | 0.00 | 0.00 | 0.00 | 67 | 1014.3 |
| 20260504035043 | 7 | 148 | 6.4 | 8.0 | 0.00 | 0.00 | 0.00 | 68 | 1014.3 |
| 20260504034543 | 7 | 144 | 4.8 | 8.0 | 0.00 | 0.00 | 0.00 | 67 | 1014.4 |
| 20260504034157 | 7 | 138 | 4.8 | 8.0 | 0.00 | 0.00 | 0.00 | 67 | 1014.3 |
| 20260504033542 | 7 | 149 | 4.8 | 8.0 | 0.00 | 0.00 | 0.00 | 66 | 1014.4 |
| 20260504033043 | 7 | 149 | 3.2 | 4.8 | 0.00 | 0.00 | 0.00 | 65 | 1014.2 |
| 20260504032542 | 7 | 149 | 3.2 | 4.8 | 0.00 | 0.00 | 0.00 | 65 | 1014.2 |
| 20260504032044 | 7 | 149 | 3.2 | 4.8 | 0.00 | 0.00 | 0.00 | 64 | 1014.3 |
| 20260504031539 | 8 | 149 | 0.0 | 0.0 | 0.00 | 0.00 | 0.00 | 63 | 1014.3 |
| 20260504031041 | 8 | 149 | 0.0 | 0.0 | 0.00 | 0.00 | 0.00 | 62 | 1014.3 |
| 20260504030537 | 8 | 149 | 0.0 | 0.0 | 0.00 | 0.00 | 0.00 | 61 | 1014.2 |
| 20260504030035 | 8 | 149 | 0.0 | 0.0 | 0.00 | 0.00 | 0.00 | 61 | 1014.1 |
| 20260504025528 | 8 | 149 | 0.0 | 1.6 | 0.00 | 0.00 | 0.00 | 60 | 1014.1 |
| 20260504025102 | 8 | 149 | 0.0 | 4.8 | 0.00 | 0.00 | 0.00 | 60 | 1014.0 |
| 20260504024601 | 8 | 149 | 1.6 | 6.4 | 0.00 | 0.00 | 0.00 | 59 | 1014.0 |
| 20260504024042 | 8 | 149 | 3.2 | 8.0 | 0.00 | 0.00 | 0.00 | 58 | 1014.1 |
| 20260504023537 | 8 | 140 | 3.2 | 8.0 | 0.00 | 0.00 | 0.00 | 59 | 1014.0 |
| 20260504023042 | 9 | 144 | 3.2 | 8.0 | 0.00 | 0.00 | 0.00 | 58 | 1014.0 |
| 20260504022540 | 9 | 142 | 4.8 | 8.0 | 0.00 | 0.00 | 0.00 | 57 | 1014.0 |
| 20260504022040 | 10 | 115 | 1.6 | 4.8 | 0.00 | 0.00 | 0.00 | 58 | 1014.0 |
| 20260504021532 | 10 | 115 | 0.0 | 0.0 | 0.00 | 0.00 | 0.00 | 56 | 1014.0 |
| 20260504021024 | 10 | 115 | 0.0 | 0.0 | 0.00 | 0.00 | 0.00 | 56 | 1014.0 |
| 20260504020540 | 10 | 115 | 0.0 | 0.0 | 0.00 | 0.00 | 0.00 | 53 | 1013.9 |
| 20260504020041 | 10 | 115 | 0.0 | 0.0 | 0.00 | 0.00 | 0.00 | 54 | 1013.8 |
| 20260504015540 | 10 | 115 | 0.0 | 0.0 | 0.00 | 0.00 | 0.00 | 53 | 1013.8 |
| 20260504015037 | 10 | 115 | 0.0 | 0.0 | 0.00 | 0.00 | 0.00 | 51 | 1013.7 |
| 20260504014524 | 11 | 115 | 0.0 | 0.0 | 0.00 | 0.00 | 0.00 | 50 | 1013.7 |
| 20260504014104 | 11 | 115 | 0.0 | 0.0 | 0.00 | 0.00 | 0.00 | 49 | 1013.7 |
| 20260504013601 | 11 | 115 | 0.0 | 3.2 | 0.00 | 0.00 | 0.00 | 48 | 1013.7 |
| 20260504013042 | 11 | 115 | 1.6 | 4.8 | 0.00 | 0.00 | 0.00 | 47 | 1013.7 |
| 20260504012602 | 11 | 113 | 1.6 | 4.8 | 0.00 | 0.00 | 0.00 | 48 | 1013.6 |
| 20260504012043 | 11 | 247 | 0.0 | 6.4 | 0.00 | 0.00 | 0.00 | 49 | 1013.6 |
| 20260504011602 | 11 | 247 | 0.0 | 6.4 | 0.00 | 0.00 | 0.00 | 47 | 1013.5 |
| 20260504011040 | 11 | 209 | 3.2 | 4.8 | 0.00 | 0.00 | 0.00 | 44 | 1013.4 |
| 20260504010556 | 12 | 209 | 1.6 | 3.2 | 0.00 | 0.00 | 0.00 | 44 | 1013.4 |
| 20260504010033 | 12 | 209 | 1.6 | 4.8 | 0.00 | 0.00 | 0.00 | 44 | 1013.4 |
| 20260504005525 | 12 | 209 | 3.2 | 4.8 | 0.00 | 0.00 | 0.00 | 45 | 1013.5 |
| 20260504005044 | 12 | 254 | 1.6 | 3.2 | 0.00 | 0.00 | 0.00 | 43 | 1013.4 |
| 20260504004536 | 12 | 254 | 0.0 | 6.4 | 0.00 | 0.00 | 0.00 | 41 | 1013.4 |
| 20260504004040 | 12 | 254 | 3.2 | 11.3 | 0.00 | 0.00 | 0.00 | 41 | 1013.3 |
| 20260504003533 | 12 | 259 | 4.8 | 12.9 | 0.00 | 0.00 | 0.00 | 40 | 1013.3 |
| 20260504003031 | 13 | 249 | 6.4 | 12.9 | 0.00 | 0.00 | 0.00 | 39 | 1013.3 |
| 20260504002524 | 13 | 267 | 3.2 | 8.0 | 0.00 | 0.00 | 0.00 | 39 | 1013.2 |
| 20260504002105 | 13 | 273 | 4.8 | 12.9 | 0.00 | 0.00 | 0.00 | 39 | 1013.2 |
| 20260504001603 | 13 | 258 | 6.4 | 12.9 | 0.00 | 0.00 | 0.00 | 39 | 1013.3 |
| 20260504001041 | 13 | 255 | 4.8 | 14.5 | 0.00 | 0.00 | 0.00 | 39 | 1013.2 |
| 20260504000540 | 13 | 244 | 6.4 | 14.5 | 0.00 | 0.00 | 0.00 | 38 | 1013.2 |
| 20260504000057 | 14 | 258 | 4.8 | 16.1 | 0.00 | 0.00 | 0.00 | 38 | 1013.2 |
| 20260503235553 | 14 | 247 | 6.4 | 16.1 | 0.00 | 0.00 | 0.00 | 37 | 1013.1 |
| 20260503235027 | 14 | 242 | 8.0 | 17.7 | 0.00 | 0.00 | 0.00 | 36 | 1013.1 |
| 20260503234603 | 14 | 262 | 9.7 | 17.7 | 0.00 | 0.00 | 0.00 | 36 | 1013.0 |
| 20260503234037 | 15 | 269 | 11.3 | 16.1 | 0.00 | 0.00 | 0.00 | 36 | 1012.9 |
| 20260503233529 | 15 | 253 | 9.7 | 16.1 | 0.00 | 0.00 | 0.00 | 35 | 1013.0 |
| 20260503233051 | 15 | 272 | 6.4 | 16.1 | 0.00 | 0.00 | 0.00 | 36 | 1012.9 |
| 20260503232551 | 15 | 252 | 8.0 | 19.3 | 0.00 | 0.00 | 0.00 | 35 | 1012.9 |
| 20260503232023 | 15 | 311 | 8.0 | 19.3 | 0.00 | 0.00 | 0.00 | 35 | 1012.8 |
| 20260503231603 | 15 | 270 | 6.4 | 19.3 | 0.00 | 0.00 | 0.00 | 34 | 1012.8 |
| 20260503231041 | 15 | 286 | 12.9 | 22.5 | 0.00 | 0.00 | 0.00 | 33 | 1012.7 |
| 20260503230533 | 15 | 292 | 11.3 | 22.5 | 0.00 | 0.00 | 0.00 | 33 | 1012.7 |
| 20260503230023 | 16 | 298 | 6.4 | 16.1 | 0.00 | 0.00 | 0.00 | 33 | 1012.6 |
| 20260503225542 | 16 | 280 | 6.4 | 16.1 | 0.00 | 0.00 | 0.00 | 33 | 1012.7 |
| 20260503225041 | 16 | 300 | 8.0 | 20.9 | 0.00 | 0.00 | 0.00 | 33 | 1012.7 |
| 20260503224539 | 16 | 271 | 11.3 | 30.6 | 0.00 | 0.00 | 0.00 | 33 | 1012.7 |
| 20260503224034 | 16 | 277 | 11.3 | 30.6 | 0.00 | 0.00 | 0.00 | 32 | 1012.6 |
| 20260503223553 | 16 | 234 | 12.9 | 24.1 | 0.00 | 0.00 | 0.00 | 32 | 1012.7 |
| 20260503223025 | 16 | 221 | 14.5 | 22.5 | 0.00 | 0.00 | 0.00 | 31 | 1012.7 |
| 20260503222538 | 16 | 251 | 8.0 | 19.3 | 0.00 | 0.00 | 0.00 | 33 | 1012.7 |
| 20260503222032 | 16 | 278 | 9.7 | 19.3 | 0.00 | 0.00 | 0.00 | 34 | 1012.7 |
| 20260503221525 | 16 | 265 | 6.4 | 25.7 | 0.00 | 0.00 | 0.00 | 33 | 1012.8 |
| 20260503221044 | 16 | 244 | 12.9 | 25.7 | 0.00 | 0.00 | 0.00 | 33 | 1012.8 |
| 20260503220543 | 17 | 254 | 9.7 | 20.9 | 0.00 | 0.00 | 0.00 | 32 | 1012.8 |
| 20260503220042 | 17 | 270 | 6.4 | 22.5 | 0.00 | 0.00 | 0.00 | 32 | 1012.7 |
| 20260503215541 | 17 | 272 | 12.9 | 22.5 | 0.00 | 0.00 | 0.00 | 31 | 1012.7 |
| 20260503215101 | 17 | 279 | 11.3 | 22.5 | 0.00 | 0.00 | 0.00 | 32 | 1012.7 |
| 20260503214540 | 17 | 318 | 12.9 | 22.5 | 0.00 | 0.00 | 0.00 | 31 | 1012.7 |
| 20260503214041 | 17 | 315 | 9.7 | 27.4 | 0.00 | 0.00 | 0.00 | 31 | 1012.8 |
| 20260503213540 | 17 | 296 | 12.9 | 27.4 | 0.00 | 0.00 | 0.00 | 30 | 1012.8 |
| 20260503213040 | 17 | 283 | 12.9 | 30.6 | 0.00 | 0.00 | 0.00 | 31 | 1012.8 |
| 20260503212535 | 17 | 277 | 12.9 | 30.6 | 0.00 | 0.00 | 0.00 | 30 | 1012.8 |
| 20260503212031 | 17 | 250 | 12.9 | 32.2 | 0.00 | 0.00 | 0.00 | 32 | 1012.8 |
| 20260503211526 | 17 | 250 | 14.5 | 32.2 | 0.00 | 0.00 | 0.00 | 32 | 1012.7 |